Location: Rehoboth Beach
(38.7438°N, 75.1341°W)
Time: 20:02:55
(UTC-04:00)

Hubble Space Telescope - Visible Passes

Search period start: 28 June 2016 00:00
Search period end: 08 July 2016 00:00
Orbit: 539 x 543 km, 28.5° (Epoch: 27 June)

Date Brightness Start Highest point End Pass type
(mag) Time Alt. Az. Time Alt. Az. Time Alt. Az.
29 Jun 2.9 21:36:18 10° S 21:36:49 11° S 21:36:49 11° S visible
30 Jun 2.7 21:25:40 10° SSW 21:27:32 13° SSE 21:28:18 12° SSE visible
01 Jul 2.6 21:15:25 10° SSW 21:17:43 15° SSE 21:19:33 11° SE visible
02 Jul 2.5 21:05:18 10° SSW 21:07:54 16° S 21:10:29 10° SE visible
02 Jul 3.1 22:45:31 10° SW 22:46:01 12° SW 22:46:01 12° SW visible
03 Jul 2.9 22:35:47 10° SW 22:36:56 15° SW 22:36:56 15° SW visible
04 Jul 2.7 22:26:06 10° SW 22:27:45 16° SSW 22:27:45 16° SSW visible
05 Jul 2.7 22:16:30 10° SW 22:18:29 16° SSW 22:18:29 16° SSW visible
06 Jul 2.7 22:06:58 10° SW 22:09:11 15° SSW 22:09:11 15° SSW visible
07 Jul 2.9 21:57:34 10° SW 21:59:27 13° SSW 21:59:51 13° S visible
